Regional Weather Roundup
Issued by NWS State College, PA

Home | Current Version | Previous Version | Graphics & Text | Print | Product List | Glossary Off
Versions: 1 2 3 4 5 6 7 8 9 10 11 12 13 14 15 16 17 18 19 20 21 22 23 24 25 26 27 28 29 30 31 32 33 34 35 36 37 38 39 40 41 42 43 44 45 46 47 48 49 50

000
ASUS41 KCTP 302010
RWRCTP

REGIONAL WEATHER ROUNDUP
NATIONAL WEATHER SERVICE STATE COLLEGE PA
300 PM EST FRI JAN 30 2015

Note: "fair" indicates few or no clouds below 12,000 feet with no
significant weather and/or obstructions to visibility.

* = STATION THAT DOES NOT REPORT PRECIPITATION /E.G. RAIN...SNOW...ETC/
    THUNDER OR FOG.

PAZ002>004-007>009-013>016-020>023-029>032-302100-
WESTERN PENNSYLVANIA

CITY           SKY/WX    TMP DP  RH WIND       PRES   REMARKS
ERIE           CLOUDY    16   6  65 NW9G18    30.33R WCI   4
MEADVILLE      LGT SNOW  14   6  70 NW12G21   30.25S VSB 1   WCI   0
FRANKLIN*      CLOUDY    16   5  62 NW13G26   30.23S WCI   2
NEW CASTLE     LGT SNOW  16  10  79 W8        30.33R WCI   5
BEAVER COUNTY  LGT SNOW  18  10  73 NW12G20   30.29R WCI   5
BUTLER*        CLOUDY    18   9  68 W8G21     30.27R WCI   7
PITTSBURGH INT LGT SNOW  18   9  68 NW16G29   30.28R WCI   3
PITTSBURGH     FLURRIES  18   5  57 NW16G24   30.26R WCI   3
INDIANA*       CLOUDY    19  10  68 NW15G23   30.22R WCI   5
LATROBE        LGT SNOW  19  10  68 W12G17    30.26R WCI   7
WASHINGTON CO* CLOUDY    19   7  58 NW10G20   30.31R WCI   8
$$

PAZ004>006-010>012-017>019-024>028-033>037-041-042-045-046-049>053-302100-
CENTRAL PENNSYLVANIA

CITY           SKY/WX    TMP DP  RH WIND       PRES   REMARKS
BRADFORD       LGT SNOW  13   4  67 NW15G24   30.07R WCI  -3
DUBOIS         LGT SNOW  15   8  73 W22G29    30.11R VSB 3/4 WCI  -3
CLEARFIELD     MIX PCPN  18   8  65 NW20G30   30.11R WCI   2
JOHNSTOWN      SNOW      14   9  80 W21G32    30.07R VSB 1/2 WCI  -4
ALTOONA        LGT SNOW  20  10  65 NW20G37   30.09R WCI   4
STATE COLLEGE  LGT SNOW  23  12  63 NW10G18   30.07R WCI  12
WILLIAMSPORT   PTSUNNY   31  13  47 NW21      30.01R
SELINSGROVE    CLOUDY    33  17  51 NW14G24   30.02R
FT INDIANTOWN  PTSUNNY   32  16  51 W23G35    29.99R
CAPITAL CITY   MOSUNNY   30  14  51 W22G29    30.03R
HARRISBURG     MOSUNNY   30  17  58 NW21G31   30.02R
YORK           PTSUNNY   31  16  54 NW23G31   30.03R
$$

PAZ038>040-043-044-047-048-054-055-060>062-067>071-302100-
EASTERN PENNSYLVANIA

CITY           SKY/WX    TMP DP  RH WIND       PRES   REMARKS
SCRANTON       FLURRIES  28  15  58 NW24G31   29.93R WCI  14
MOUNT POCONO   LGT SNOW  25  15  66 NW21G37   29.82R WCI  11
ALLENTOWN      CLOUDY    34  20  56 NW18G24   29.92R
QUAKERTOWN*    PTCLDY    34  21  60 NW9G21    29.92R
READING        MOSUNNY   32  26  78 W15       29.95S
LANCASTER      MOSUNNY   32  18  56 NW24G32   29.98R
COATESVILLE    LGT SNOW  32  28  86 NW18G24   29.95R
POTTSTOWN      PTSUNNY   35  16  45 NW16G24   29.94R
BLUE BELL      MOSUNNY   37  19  48 NW9G20    29.90S
DOYLESTOWN     PTSUNNY   35  21  56 NW15G22   29.89R
WILLOW GROVE   NOT AVBL
NORTH PHILA    PTSUNNY   41  18  39 NW17G31   29.92R
PHILADELPHIA   PTSUNNY   40  16  37 NW21G33   29.93R
$$



USA.gov is the U.S. government's official web portal to all federal, state and local government web resources and services.